GW3137 Weather Reports


time (UTC)temp
C
wind
direction
speed
KPH
gust
KPH
rain 1hr
cm
rain 24hr
cm
rain mn
cm
humidity
%
barometer
mb
20260906003704 22 304 1.6 3.2 0.00 0.00 0.00 51 1016.0
20260906003204 23 321 1.6 4.8 0.00 0.00 0.00 50 1016.0
20260906000704 21 253 1.6 3.2 0.00 0.00 0.00 53 1016.0
20260906000204 21 242 1.6 9.7 0.00 0.00 0.00 54 1016.0
20260905233703 22 215 1.6 4.8 0.00 0.00 0.00 52 1016.1
20260905233204 22 355 0.0 4.8 0.00 0.00 0.00 52 1016.1
20260905230704 22 344 3.2 4.8 0.00 0.00 0.00 49 1016.3
20260905230204 22 7 1.6 4.8 0.00 0.00 0.00 53 1016.4
20260905223704 21 201 1.6 4.8 0.00 0.00 0.00 58 1016.7
20260905223204 21 322 1.6 4.8 0.00 0.00 0.00 59 1016.7
20260905220704 18 140 1.6 4.8 0.00 0.00 0.00 65 1017.0
20260905220204 18 173 1.6 8.0 0.00 0.00 0.00 66 1017.1
20260905213704 18 56 1.6 4.8 0.00 0.00 0.00 67 1017.2
20260905213203 18 124 1.6 4.8 0.00 0.00 0.00 67 1017.3
20260905210703 18 136 1.6 4.8 0.00 0.00 0.00 70 1017.4
20260905210204 18 237 1.6 4.8 0.00 0.00 0.00 70 1017.4
20260905203704 17 122 1.6 4.8 0.00 0.00 0.00 68 1017.5
20260905203205 17 202 1.6 8.0 0.00 0.00 0.00 68 1017.6
20260905200205 17 210 1.6 8.0 0.00 0.00 0.00 67 1017.8
20260905193203 17 204 1.6 11.3 0.00 0.00 0.00 69 1017.8
20260905190704 17 186 3.2 4.8 0.00 0.00 0.00 71 1018.0
20260905183704 17 172 4.8 9.7 0.00 0.00 0.00 73 1018.2
20260905183204 17 165 3.2 11.3 0.00 0.00 0.00 73 1018.1
20260905180204 17 189 3.2 9.7 0.00 0.00 0.00 74 1018.2
20260905173704 17 85 1.6 4.8 0.00 0.00 0.00 74 1018.1
20260905173204 16 251 0.0 11.3 0.00 0.00 0.00 73 1018.1
20260905170704 16 293 3.2 4.8 0.00 0.00 0.00 75 1018.0
20260905163704 16 308 3.2 4.8 0.00 0.00 0.00 74 1017.8
20260905163204 16 194 0.0 4.8 0.00 0.00 0.00 75 1017.8
20260905160704 15 269 1.6 3.2 0.00 0.00 0.00 78 1017.8
20260905160204 15 191 1.6 4.8 0.00 0.00 0.00 79 1017.9
20260905153704 14 281 1.6 3.2 0.00 0.00 0.00 84 1017.9
20260905153204 13 287 3.2 4.8 0.00 0.00 0.00 84 1018.0
20260905150704 13 128 0.0 3.2 0.00 0.00 0.00 86 1017.9
20260905150203 13 128 0.0 4.8 0.00 0.00 0.00 86 1017.8
20260905143704 12 113 1.6 4.8 0.00 0.00 0.00 87 1017.5
20260905143203 12 98 1.6 4.8 0.00 0.00 0.00 87 1017.5
20260905140704 12 112 0.0 1.6 0.00 0.00 0.00 87 1017.3
20260905133705 12 112 0.0 0.0 0.00 0.00 0.00 88 1017.2
20260905133203 12 112 0.0 0.0 0.00 0.00 0.00 88 1017.2
20260905130704 11 112 0.0 0.0 0.00 0.00 0.00 90 1017.2
20260905130204 11 112 0.0 0.0 0.00 0.00 0.00 89 1017.2
20260905123204 11 112 0.0 0.0 0.00 0.00 0.00 89 1017.0
20260905120703 11 112 0.0 0.0 0.00 0.00 0.00 90 1017.0
20260905120204 11 112 0.0 0.0 0.00 0.00 0.00 90 1017.0
20260905113703 11 112 0.0 0.0 0.00 0.00 0.00 90 1016.9
20260905113203 11 112 0.0 0.0 0.00 0.00 0.00 89 1016.9
20260905110204 11 112 0.0 0.0 0.00 0.00 0.00 89 1016.8
20260905103704 11 112 0.0 0.0 0.00 0.00 0.00 88 1016.6
20260905103203 11 112 0.0 0.0 0.00 0.00 0.00 89 1016.5
20260905100704 12 112 0.0 0.0 0.00 0.00 0.00 88 1016.5
20260905100204 12 112 0.0 1.6 0.00 0.00 0.00 87 1016.5
20260905093704 12 113 0.0 0.0 0.00 0.00 0.00 88 1016.5
20260905090204 12 113 0.0 1.6 0.00 0.00 0.00 87 1016.5
20260905083704 12 130 0.0 0.0 0.00 0.00 0.00 86 1016.3
20260905083205 12 130 0.0 0.0 0.00 0.00 0.00 86 1016.3
20260905080704 12 130 0.0 0.0 0.00 0.00 0.00 87 1016.2
20260905073704 13 130 0.0 0.0 0.00 0.00 0.00 84 1016.2
20260905073204 13 130 0.0 4.8 0.00 0.00 0.00 84 1016.1
20260905070704 13 52 0.0 0.0 0.00 0.00 0.00 86 1016.0
20260905070204 13 52 0.0 0.0 0.00 0.00 0.00 86 1016.0
20260905063704 13 52 0.0 0.0 0.00 0.05 0.00 85 1015.8
20260905063204 13 52 0.0 0.0 0.00 0.05 0.00 85 1015.8
20260905060704 14 52 0.0 1.6 0.00 0.08 0.00 84 1015.6
20260905060204 14 52 0.0 0.0 0.00 0.08 0.00 83 1015.5
20260905053704 15 52 0.0 0.0 0.00 0.08 0.00 80 1015.5
20260905053203 15 52 0.0 4.8 0.00 0.08 0.00 80 1015.5
20260905050704 15 52 0.0 0.0 0.00 0.08 0.00 85 1015.5
20260905050204 15 52 0.0 0.0 0.00 0.08 0.00 84 1015.5
20260905043703 15 52 0.0 3.2 0.00 0.08 0.00 83 1015.6
20260905043204 15 52 1.6 11.3 0.00 0.08 0.00 83 1015.5
20260905040704 16 57 4.8 8.0 0.00 0.08 0.00 82 1015.5
20260905040204 16 69 3.2 4.8 0.00 0.08 0.00 81 1015.5
20260905033704 16 53 1.6 4.8 0.00 0.08 0.00 81 1015.4
20260905033203 16 69 0.0 4.8 0.00 0.08 0.00 81 1015.5
20260905030204 16 63 1.6 8.0 0.00 0.08 0.00 79 1015.1
20260905023704 16 306 0.0 1.6 0.00 0.08 0.00 77 1014.9
20260905023204 16 306 0.0 12.9 0.00 0.08 0.00 77 1014.9
20260905020704 17 68 4.8 9.7 0.00 0.08 0.00 72 1014.8
20260905020203 17 69 4.8 9.7 0.00 0.08 0.00 72 1014.8
20260905013703 17 71 3.2 12.9 0.00 0.10 0.00 69 1014.8
20260905013204 17 93 4.8 19.3 0.00 0.10 0.00 69 1014.7
20260905010204 17 71 6.4 16.1 0.00 0.36 0.00 72 1014.3